Millville, NJ

5:52 AM EDT on April 25, 2018 (GMT -0400)
Millville Municipal

Weather History for KMIV - July, 2013

Change the Weather History Date:

Friday, July 26, 2013

  Actual Average Record
Temperature  
Mean Temperature 72 °F -  
Max Temperature 82 °F 84 °F 95 °F (2005)
Min Temperature 62 °F 67 °F 51 °F (1976)
Cooling Degree Days 7    
Growing Degree Days 22 (Base 50)    
Moisture  
Dew Point 60 °F    
Average Humidity 69    
Maximum Humidity 90    
Minimum Humidity 41    
Precipitation  
Precipitation 0.00 in - - ()
Sea Level Pressure  
Sea Level Pressure 30.04 in    
Wind  
Wind Speed 5 mph (NW)    
Max Wind Speed 9 mph    
Max Gust Speed -    
Visibility 10 miles    
Events      
Averages and records for this station are not official NWS values.
T = Trace of Precipitation, MM = Missing Value Source: NWS Daily Summary

Daily Weather History Graph

Daily Weather History Graph

Search for Another Location

Airport or City:

Astronomy

Jul. 26, 2013 Rise Set
Actual Time 5:55 AM EDT 8:18 PM EDT
Civil Twilight 5:24 AM EDT 8:48 PM EDT
Nautical Twilight 4:46 AM EDT 9:25 PM EDT
Astronomical Twilight 4:05 AM EDT 10:07 PM EDT
Moon 10:32 PM EDT (7/26) 10:26 AM EDT (7/26)
Length of Visible Light 15h 23m
Length of Day
14h 23m
Waning Gibbous, 80% of the Moon is Illuminated
Jul 26
Waning Gibbous
Jul 29
Last Quarter
Aug 6
New
Aug 14
First Quarter
Aug 20
Full

Hourly Weather History & Observations

Time (EDT) Temp. Heat Index Dew Point Humidity Pressure Visibility Wind Dir Wind Speed Gust Speed Precip Events Conditions
12:26 AM 64.4 °F - 59.0 °F 83% 30.02 in 10.0 mi NNE 4.6 mph - N/A   Mostly Cloudy
12:54 AM 64.9 °F - 59.0 °F 81% 30.01 in 10.0 mi NNE 5.8 mph - N/A   Scattered Clouds
1:05 AM 64.4 °F - 59.0 °F 83% 30.01 in 10.0 mi NNW 4.6 mph - N/A   Mostly Cloudy
1:14 AM 64.4 °F - 59.0 °F 83% 30.01 in 10.0 mi NNW 4.6 mph - N/A   Scattered Clouds
1:54 AM 63.0 °F - 59.0 °F 87% 30.00 in 10.0 mi NW 4.6 mph - N/A   Clear
2:54 AM 62.1 °F - 59.0 °F 90% 30.01 in 9.0 mi NW 3.5 mph - N/A   Mostly Cloudy
3:54 AM 64.0 °F - 59.0 °F 84% 30.01 in 10.0 mi NNW 4.6 mph - N/A   Overcast
4:54 AM 64.9 °F - 57.9 °F 78% 30.01 in 10.0 mi NW 4.6 mph - N/A   Overcast
5:49 AM 64.4 °F - 59.0 °F 83% 30.02 in 10.0 mi Calm Calm - N/A   Overcast
5:54 AM 64.9 °F - 59.0 °F 81% 30.02 in 10.0 mi NNW 3.5 mph - N/A   Overcast
6:54 AM 64.9 °F - 59.0 °F 81% 30.02 in 10.0 mi NW 3.5 mph - N/A   Clear
7:54 AM 68.0 °F - 59.0 °F 73% 30.04 in 10.0 mi NW 5.8 mph - N/A   Clear
8:54 AM 70.0 °F - 60.1 °F 71% 30.05 in 10.0 mi NNW 5.8 mph - N/A   Mostly Cloudy
9:54 AM 73.0 °F - 61.0 °F 66% 30.06 in 10.0 mi West 5.8 mph - N/A   Partly Cloudy
10:31 AM 73.4 °F - 60.8 °F 65% 30.06 in 10.0 mi WNW 4.6 mph - N/A   Mostly Cloudy
10:40 AM 73.4 °F - 60.8 °F 65% 30.06 in 10.0 mi Variable 4.6 mph - N/A   Mostly Cloudy
10:54 AM 75.0 °F - 62.1 °F 64% 30.06 in 10.0 mi North 8.1 mph - N/A   Mostly Cloudy
11:54 AM 78.1 °F - 60.1 °F 54% 30.06 in 10.0 mi North 9.2 mph - N/A   Partly Cloudy
12:54 PM 80.1 °F 80.7 °F 59.0 °F 48% 30.05 in 10.0 mi NNW 4.6 mph - N/A   Partly Cloudy
1:54 PM 81.0 °F 81.3 °F 59.0 °F 47% 30.04 in 10.0 mi NNW 9.2 mph - N/A   Clear
2:54 PM 81.0 °F 81.1 °F 57.9 °F 45% 30.04 in 10.0 mi WNW 9.2 mph - N/A   Scattered Clouds
3:54 PM 82.0 °F 82.1 °F 59.0 °F 45% 30.03 in 10.0 mi West 9.2 mph - N/A   Mostly Cloudy
4:54 PM 82.0 °F 81.6 °F 55.9 °F 41% 30.03 in 10.0 mi West 4.6 mph - N/A   Partly Cloudy
5:54 PM 82.0 °F 81.6 °F 55.9 °F 41% 30.03 in 10.0 mi West 8.1 mph - N/A   Clear
6:54 PM 80.1 °F 80.4 °F 57.0 °F 45% 30.03 in 10.0 mi West 5.8 mph - N/A   Clear
7:54 PM 75.0 °F - 60.1 °F 60% 30.04 in 10.0 mi Calm Calm - N/A   Clear
8:54 PM 71.1 °F - 64.0 °F 78% 30.05 in 10.0 mi Variable 3.5 mph - N/A   Clear
9:54 PM 70.0 °F - 64.0 °F 81% 30.06 in 10.0 mi Calm Calm - N/A   Clear
10:54 PM 68.0 °F - 63.0 °F 84% 30.07 in 10.0 mi Calm Calm - N/A   Clear
11:54 PM 66.9 °F - 63.0 °F 87% 30.07 in 10.0 mi Calm Calm - N/A   Clear